Location: Menands
(42.6920°N, 73.7246°W)
Time: 07:23:31
(UTC+00:00)

Tiangong - Pass Details

Date: 18 February 2026
Orbit: 381 x 391 km, 41.5° (Epoch: 7 March)

Event Time Altitude Azimuth Distance (km) Brightness Sun altitude
Rises 23:22:01 0° 274° (W) 2,258 3.8 -10.1°
Reaches altitude 10° 23:24:06 10° 270° (W) 1,401 2.3 -10.5°
Maximum altitude 23:27:13 58° 190° (S) 450 -1.7 -11.0°
Enters shadow 23:29:33 16° 114° (ESE) 1,088 -0.4 -11.5°
